Find Starlink 34638

NORAD ID: 64762 Int'l Des: 2025-147 Owner: SPXS Country: US Constellation: starlink operational
LEOCIRCULAR

Live Position

Loading 3D Globe...

About Starlink 34638

Description loading...

Upcoming Passes

Passes for default location (London). Set your location on the main map for personalized predictions.

Altitude History

Loading altitude history...

Two-Line Element Set

1 64762U 25147H 26110.24773668 .00008819 00000-0 30951-3 0 9994
2 64762 53.1599 49.7761 0001055 83.5787 276.5334 15.30199495 45119
Epoch: Apr 20, 2026 • Age: 15 hours

Current Status

Altitude 493.7 km
Velocity 7.62 km/s
Sub-Earth Point -51.44°S, 129.42°E
Launch Date Jul 8, 2025
Age 0.7 years
Type internet

Technical Details

Classification Payload
Mass 575.00 kg
Dry Mass 530.00 kg
Total Mass 575.00 kg
Length 0.30 m
Diameter 4.10 m
Span 29.00 m
Shape Box + pan
Manufacturer SPXS
Bus Type Starlink V2MO
Phase Status In Orbit
Owner/State SPXS/US

Most Searched